Location: Ústí nad Labem
(50.6611°N, 14.0531°E)
Time: 19:01:26
(UTC+02:00)

A-11 Canister half - Visible Passes

Search period start: 13 April 2024 00:00
Search period end: 23 April 2024 00:00
Orbit: 1526 x 1682 km, 47.3° (Epoch: 12 April)

Date Brightness Start Highest point End Pass type
(mag) Time Alt. Az. Time Alt. Az. Time Alt. Az.
18 Apr 11.1 05:21:08 10° SSE 05:26:21 16° SE 05:31:35 10° E visible
19 Apr 11.1 04:59:57 10° SSE 05:04:42 14° SE 05:09:28 10° E visible
20 Apr 11.1 04:38:51 10° SSE 04:43:04 13° ESE 04:47:17 10° E visible
21 Apr 11.1 04:17:51 10° SE 04:21:25 12° ESE 04:25:01 10° E visible
22 Apr 11.1 03:57:03 10° SE 03:59:47 11° ESE 04:02:32 10° ESE visible
